This demonstration page uses our WeatherBlox Daily Observations layout. Learn more.

Left ArrowRight Arrow

39.08367, -84.50855

Hourly Observations for January 3, 2015

Temp ( °F °C ) Dew Point ( °F °C ) Humidity (%) Winds ( mph kmh ) Pressure ( in mb ) Visibility ( mi km ) Precip ( " mm )
12:53 am 00:53 Cloudy with Light Rain 36 2.2 33 0.6 89 89 Calm 30.25 1024 6 9.65604 0.02 0.508
1:53 am 01:53 Cloudy with Light Rain 35 1.7 34 1.1 96 96 NE 3 6 30.24 1024 5 8.0467 0.04 1.016
2:53 am 02:53 Cloudy with Mist and Fog 35 1.7 34 1.1 96 96 NE 6 9 30.22 1023 5 8.0467 0 0.0254
3:32 am 03:32 Cloudy with Mist and Fog 35 1.7 34 1.1 96 96 NE 6 9 30.18 1022 5 8.0467 0 0.0254
3:53 am 03:53 Cloudy with Light Rain 36 2.2 35 1.7 97 97 NNE 5 7 30.17 1022 5 8.0467 0 0.0254
4:26 am 04:26 Cloudy with Light Rain 36 2 36 2 100 100 NNE 3 6 30.15 1021 2 3.21868 0 0
4:41 am 04:41 Cloudy with Light Rain 36 2.2 35 1.7 97 97 NNE 3 6 30.12 1020 2.5 4.02335 0.01 0.254
4:53 am 04:53 Cloudy with Rain 36 2.2 35 1.7 97 97 Calm 30.14 1021 2.5 4.02335 0.03 0.762
5:43 am 05:43 Cloudy with Heavy Rain 37 2.8 36 2.2 96 96 Calm 30.12 1020 1.5 2.41401 0.18 4.572
5:53 am 05:53 Cloudy with Rain 37 2.8 37 2.8 100 100 Calm 30.14 1021 2 3.21868 0.2 5.08
6:12 am 06:12 Cloudy with Rain 36 2 36 2 100 100 E 5 7 30.12 1020 1.75 2.816345 0 0
6:21 am 06:21 Cloudy with Light Rain 36 2.2 36 2.2 100 100 E 3 6 30.12 1020 2.5 4.02335 0.06 1.524
6:29 am 06:29 Cloudy with Light Rain 36 2.2 36 2.2 100 100 E 3 6 30.12 1020 4 6.43736 0.07 1.778
6:36 am 06:36 Cloudy with Light Rain 37 3 37 3 100 100 Calm 30.12 1020 3 4.82802 0 0
6:40 am 06:40 Cloudy with Rain 37 3 37 3 100 100 Calm 30.09 1019 2.5 4.02335 0 0
6:48 am 06:48 Cloudy with Rain 37 3 36 2 93 93 Calm 30.09 1019 2 3.21868 0 0
6:53 am 06:53 Cloudy with Rain 37 2.8 36 2.2 96 96 Calm 30.1 1019 2.5 4.02335 0.13 3.302
7:03 am 07:03 Cloudy with Light Rain 37 3 37 3 100 100 Calm 30.09 1019 4 6.43736 0 0
7:10 am 07:10 Cloudy with Light Rain 37 3 37 3 100 100 Calm 30.09 1019 3 4.82802 0 0
7:53 am 07:53 Cloudy 38 3.3 38 3.3 100 100 SSW 5 7 30.09 1019 8 12.87472 0.02 0.508
8:53 am 08:53 Cloudy with Mist and Fog 39 3.9 39 3.9 100 100 Calm 30.07 1018 2 3.21868 0.05 1.27
9:23 am 09:23 Cloudy with Mist and Fog 40 4.4 40 4.4 100 100 S 6 9 30.06 1018 5 8.0467 0 0
9:53 am 09:53 Cloudy with Mist and Fog 41 5 40 4.4 96 96 S 5 7 30.06 1018 5 8.0467 0 0
10:53 am 10:53 Cloudy 43 6.1 42 5.6 97 97 SSW 6 9 30.01 1016 10 16.0934 0 0
11:35 am 11:35 Cloudy with Rain 44 6.7 44 6.7 100 100 Calm 29.97 1015 1.75 2.816345 0.05 1.27
11:44 am 11:44 Cloudy with Rain 45 7 43 6 93 93 W 3 6 29.97 1015 1.5 2.41401 0 0
11:51 am 11:51 Cloudy with Rain 45 7 43 6 93 93 WSW 5 7 29.97 1015 1.75 2.816345 0.1 2.54
11:52 am 11:52 Cloudy with Rain 44 6.7 43 6.1 96 96 WSW 5 7 29.98 1015 1.75 2.816345 0.1 2.54
11:55 am 11:55 Cloudy with Heavy Thunderstorms 43 6.1 43 6.1 100 100 W 3 6 29.97 1015 1 1.60934 0.04 1.016
12:15 pm 12:15 Cloudy with Nearby Thunderstorms 45 7.2 45 7.2 100 100 WNW 5 7 29.97 1015 5 8.0467 0.04 1.016
12:26 pm 12:26 Cloudy with Light Rain 46 8 46 8 100 100 W 3 6 29.94 1014 5 8.0467 0 0
12:53 pm 12:53 Cloudy with Light Rain 45 7.2 45 7.2 100 100 Calm 29.94 1014 5 8.0467 0.05 1.27
1:53 pm 13:53 Cloudy with Rain 46 7.8 46 7.8 100 100 S 3 6 29.91 1013 2 3.21868 0.06 1.524
2:53 pm 14:53 Cloudy with Mist and Fog 47 8.3 47 8.3 100 100 Calm 29.88 1012 3 4.82802 0.03 0.762
3:18 pm 15:18 Cloudy with Rain 46 8 46 8 100 100 Calm 29.88 1012 1.75 2.816345 0 0
3:53 pm 15:53 Cloudy with Light Rain 48 8.9 48 8.9 100 100 Calm 29.85 1011 1.75 2.816345 0.08 2.032
4:29 pm 16:29 Cloudy with Light Rain 55 12.8 54 12.2 96 96 S 9 15 29.8 1009 9 14.48406 0.01 0.254
4:53 pm 16:53 Mostly Cloudy 59 15 56 13.3 90 90 SSW 18 30 29.8 1009 10 16.0934 0.01 0.254
5:45 pm 17:45 Cloudy 60 15.6 57 13.9 90 90 WSW 15 24 29.83 1010 10 16.0934 0 0.0254
5:53 pm 17:53 Cloudy 60 15.6 57 13.9 90 90 SW 13 20 29.83 1010 10 16.0934 0 0.0254
6:53 pm 18:53 Cloudy 60 15.6 57 13.9 90 90 SSW 12 19 29.85 1011 10 16.0934 0 0
7:53 pm 19:53 Cloudy 61 16.1 57 13.9 87 87 SSW 15 24 29.83 1010 10 16.0934 0 0.0254
8:53 pm 20:53 Cloudy with Light Rain 61 16.1 57 13.9 87 87 SSW 16 26 29.84 1011 10 16.0934 0 0.0254
9:24 pm 21:24 Cloudy 61 16 57 14 88 88 S 14 22 29.83 1010 10 16.0934 0 0
9:46 pm 21:46 Cloudy 61 16 57 14 88 88 SSW 15 24 29.83 1010 10 16.0934 0 0
9:53 pm 21:53 Cloudy 61 16.1 57 13.9 87 87 SSW 15 24 29.84 1010 10 16.0934 0.01 0.254
10:53 pm 22:53 Cloudy 61 16.1 57 13.9 87 87 SSW 14 22 29.81 1010 10 16.0934 0 0
11:53 pm 23:53 Cloudy 60 15.6 57 13.9 90 90 S 14 22 29.78 1009 10 16.0934 0 0

Powered by AerisWeather